Chatel, France 16 day weather forecast

Slopes altitude range 1100 m - 2205m

Number of lifts: 197 Pistes: 650km

In some cases the lift and piste totals shown are for the ski domain (e.g. Three Valleys) rather than individual resort (e.g. Courchevel)

Overview

The 16 day weather forecast is fully updated 4 times every day.

    • Sat 20 APR 2019
    • Sat 20
    • 6C 18C
    • Sun 21 APR 2019
    • Sun 21
    • 7C 17C
    • Mon 22 APR 2019
    • Mon 22
    • 8C 19C
    • Tue 23 APR 2019
    • Tue 23
    • 9C 17C
    • Wed 24 APR 2019
    • Wed 24
    • 9C 19C
    • Thu 25 APR 2019
    • Thu 25
    • 7C 17C
    • Fri 26 APR 2019
    • Fri 26
    • 1C 3C
    • Sat 27 APR 2019
    • Sat 27
    • 2C 5C
    • Sun 28 APR 2019
    • Sun 28
    • 7C 15C
    • Mon 29 APR 2019
    • Mon 29
    • 7C 17C
    • Tue 30 APR 2019
    • Tue 30
    • 5C 23C
    • Wed 01 MAY 2019
    • Wed 01
    • 8C 22C
    • Thu 02 MAY 2019
    • Thu 02
    • 8C 22C
    • Fri 03 MAY 2019
    • Fri 03
    • 8C 22C
    • Sat 04 MAY 2019
    • Sat 04
    • 8C 22C
    • Sun 05 MAY 2019
    • Sun 05
    • 9C 25C

Date:

Time Type 0°C level Temp Chill Snow Cloud Speed Gust Dir Press
3:00 2650m 4°C 4_5 0cm 0% 5mph 6mph 1027mB
6:00 2645m 4°C 4_5 0cm 0% 5mph 5mph 1028mB
9:00 2692m 6°C 6_0 0cm 0% 0mph 3mph 1025mB
12:00 2724m 18°C 18_4 0cm 0% 4mph 6mph 1024mB
15:00 2838m 18°C 18_5 0cm 0% 5mph 7mph 1023mB
18:00 2828m 18°C 18_2 0cm 0% 2mph 3mph 1023mB
21:00 2913m 7°C 7_5 0cm 0% 5mph 5mph 1025mB
0:00 2950m 5°C 5_5 0cm 42% 5mph 5mph 1025mB
3:00 2867m 5°C 5_5 0cm 100% 5mph 5mph 1023mB
6:00 2845m 4°C 4_4 0cm 99% 4mph 5mph 1022mB
9:00 2872m 7°C 7_2 0cm 92% 2mph 3mph 1019mB
12:00 2818m 17°C 17_5 0cm 89% 5mph 4mph 1017mB
15:00 2851m 17°C 17_5 0cm 90% 5mph 4mph 1016mB
18:00 2765m 17°C 17_1 0cm 95% 1mph 1mph 1016mB
21:00 2745m 8°C 8_4 0cm 97% 4mph 4mph 1017mB
0:00 2904m 6°C 6_5 0cm 92% 5mph 5mph 1016mB
3:00 2907m 5°C 5_5 0cm 92% 5mph 5mph 1014mB
6:00 2916m 5°C 5_4 0cm 96% 4mph 5mph 1012mB
9:00 2988m 8°C 8_1 0cm 99% 1mph 4mph 1009mB
12:00 2940m 19°C 19_3 0cm 96% 3mph 7mph 1006mB
15:00 2985m 19°C 19_4 0cm 32% 4mph 6mph 1003mB
18:00 2963m 19°C 19_3 0cm 61% 3mph 4mph 1002mB
21:00 3028m 9°C 9_5 0cm 100% 5mph 5mph 1002mB
0:00 2933m 8°C 8_5 0cm 100% 5mph 5mph 1001mB
3:00 2719m 8°C 8_4 0cm 100% 4mph 5mph 1000mB
6:00 2636m 7°C 7_4 0cm 100% 4mph 5mph 1000mB
9:00 2683m 9°C 9_3 0cm 100% 3mph 4mph 999mB
12:00 2769m 17°C 17_4 0cm 99% 4mph 4mph 999mB
15:00 2721m 17°C 17_4 0cm 80% 4mph 4mph 998mB
18:00 2816m 17°C 17_2 0cm 77% 2mph 3mph 999mB
21:00 2784m 8°C 8_4 0cm 92% 4mph 5mph 1003mB
0:00 2820m 8°C 8_3 0cm 92% 3mph 4mph 1004mB
3:00 2772m 6°C 6_4 0cm 89% 4mph 4mph 1005mB
6:00 2872m 6°C 6_3 0cm 73% 3mph 4mph 1005mB
9:00 2781m 9°C 9_2 0cm 70% 2mph 4mph 1006mB
12:00 2812m 19°C 19_6 0cm 82% 6mph 10mph 1006mB
15:00 2835m 17°C 17_4 0cm 100% 4mph 5mph 1007mB
18:00 2834m 17°C 17_3 0cm 100% 3mph 4mph 1008mB
21:00 2794m 7°C 7_2 0cm 100% 2mph 2mph 1010mB
0:00 2756m 6°C 6_1 0cm 99% 1mph 2mph 1011mB
3:00 2666m 5°C 5_2 0cm 94% 2mph 2mph 1011mB
6:00 2676m 5°C 5_2 0cm 83% 2mph 2mph 1011mB
9:00 2758m 7°C 7_3 0cm 29% 3mph 2mph 1010mB
12:00 2748m 17°C 17_4 0cm 55% 4mph 6mph 1008mB
15:00 2664m 18°C 18_7 0cm 99% 7mph 9mph 1008mB
18:00 2191m 18°C 18_6 0cm 95% 6mph 9mph 1010mB
21:00 1742m 3°C 3_4 0cm 100% 4mph 7mph 1012mB
0:00 1446m 2°C 2_4 4cm 100% 4mph 7mph 1013mB
3:00 1422m 2°C 2_5 6cm 100% 5mph 10mph 1014mB
6:00 1342m 1°C 1_5 7cm 100% 5mph 10mph 1016mB
9:00 1327m 1°C 1_4 5cm 100% 4mph 7mph 1018mB
12:00 1437m 3°C 3_4 4cm 100% 4mph 6mph 1019mB
15:00 1510m 4°C 4_5 3cm 99% 5mph 8mph 1019mB
18:00 1565m 4°C 4_3 7cm 100% 3mph 4mph 1022mB
21:00 1563m 2°C 2_3 4cm 99% 3mph 5mph 1024mB
0:00 1457m 2°C 2_4 4cm 100% 4mph 8mph 1026mB
3:00 1374m 1°C 1_4 1cm 100% 4mph 7mph 1026mB
6:00 1355m 1°C 1_5 1cm 100% 5mph 10mph 1027mB
9:00 1519m 2°C 2_7 1cm 97% 7mph 15mph 1027mB
12:00 1732m 5°C 5_8 0cm 97% 8mph 15mph 1026mB
15:00 1791m 11°C 11_11 0cm 77% 11mph 17mph 1028mB
18:00 1862m 11°C 11_9 0cm 68% 9mph 20mph 1028mB
21:00 1859m 6°C 6_9 0cm 80% 9mph 26mph 1030mB
0:00 2108m 5°C 5_8 0cm 83% 8mph 28mph 1029mB
3:00 2712m 4°C 4_8 0cm 31% 8mph 29mph 1027mB
6:00 2904m 4°C 4_13 0cm 29% 13mph 29mph 1026mB
9:00 2974m 7°C 7_15 0cm 33% 15mph 25mph 1025mB
12:00 3011m 15°C 15_14 0cm 18% 14mph 23mph 1023mB
15:00 2887m 16°C 16_13 0cm 1% 13mph 21mph 1022mB
18:00 3002m 16°C 16_8 0cm 1% 8mph 21mph 1022mB
21:00 3124m 7°C 7_7 0cm 2% 7mph 19mph 1023mB
0:00 3119m 6°C 6_6 0cm 1% 6mph 18mph 1022mB
3:00 2992m 5°C 5_6 0cm 12% 6mph 14mph 1021mB
6:00 2935m 5°C 5_7 0cm 27% 7mph 16mph 1020mB
9:00 2952m 7°C 7_9 0cm 13% 9mph 15mph 1018mB
12:00 2956m 17°C 17_9 0cm 6% 9mph 13mph 1016mB
15:00 2902m 18°C 18_8 0cm 1% 8mph 11mph 1014mB
18:00 2886m 18°C 18_5 0cm 3% 5mph 10mph 1015mB
21:00 2917m 9°C 9_3 0cm 1% 3mph 5mph 1016mB
0:00 2933m 7°C 7_1 0cm 0% 1mph 1mph 1015mB
Afternoon 0mm 0 2988m 23°C 23_1 0cm 0% 1mph 3mph 1010mB
Morning 0mm 0 3036m 8°C 8_5 0cm 42% 5mph 6mph 1009mB
Afternoon 0.161458mm 1.9375 3089m 22°C 22_2 0cm 81% 2mph 4mph 1006mB
Morning 0.921875mm 10.875 3110m 8°C 8_3 0cm 66% 3mph 3mph 1008mB
Afternoon 0.125mm 1.375 3018m 22°C 22_3 0cm 90% 3mph 4mph 1007mB
Morning 0.421875mm 4.6875 2998m 10°C 10_5 0cm 92% 5mph 5mph 1011mB
Afternoon 0.21875mm 2.625 3082m 22°C 22_3 0cm 15% 3mph 4mph 1010mB
Morning 0.557292mm 6.6875 3126m 10°C 10_4 0cm 90% 4mph 5mph 1013mB
Afternoon 0mm 0 3260m 22°C 22_4 0cm 10% 4mph 3mph 1011mB
Morning 0.03125mm 0.375 3258m 10°C 10_4 0cm 13% 4mph 4mph 1012mB
Afternoon 0mm 0 3328m 25°C 25_2 0cm 47% 2mph 4mph 1010mB
Morning 0.0833333mm 0.9375 3112m 11°C 11_6 0cm 90% 6mph 17mph 1012mB

16 day outlook at a glance

Forecast issued: 20/04/2019 06:22:06

Chat

Your comments and questions. In a resort? Let us know what it's like!


Characters left 250

For terms and conditions see Readers Comments on the Cookie and privacy policy page.